レモン彗星

C/2021 T4 ( Lemmon )

English version
Home page
Updated on January 10, 2025

---------------------------------------------------------------------

・ プロフィール

発見日 2021年10月7日
発見光度 20.2等
発見者 Mount Lemmon

・ 写真集

・ 軌道要素

Epoch 2024 Mar. 31.0 TT = JDT 2460400.5
T 2023 July 31.53980 TT                                 Rudenko
q   1.4831274            (2000.0)            P               Q
z  +0.0000391      Peri.  329.81845     +0.28274766     -0.90356736
 +/-0.0000004      Node   257.88682     -0.80100291     -0.40704403
e   0.9999419      Incl.  160.77792     -0.52768181     +0.13372054
>From 1746 observations 2021 Aug. 7-2024 Mar. 18, mean residual 0".7.

・ 星図

・ 光度変化

        m1 = 7.5 + 5 logΔ + 10.0 log r  [ ,0]  (              〜2023年 7月31日)
        m1 = 6.8 + 5 logΔ + 15.0 log r  [0, ]  (2023年 7月31日〜              )

---------------------------------------------------------------------

軌道要素はM.P.E.C. 2024-F34に掲載されたものです。
星図はステラナビゲータ Ver.10 (アストロアーツ) で作成したものです。
光度グラフはComet for Windowsで作成したものです。

---------------------------------------------------------------------

Copyright(C) Seiichi Yoshida (comet@aerith.net). All rights reserved.